Regional Weather Roundup
Issued by NWS Sterling, VA

Home | Current Version | Previous Version | Graphics & Text | Print | Product List | Glossary On
Versions: 1 2 3 4 5 6 7 8 9 10 11 12 13 14 15 16 17 18 19 20 21 22 23 24 25 26 27 28 29 30 31 32 33 34 35 36 37 38 39 40 41 42 43 44 45 46 47 48 49 50
000
ASUS41 KLWX 272010
RWRLWX

REGIONAL WEATHER ROUNDUP
NATIONAL WEATHER SERVICE BALTIMORE MD/WASHINGTON DC
400 PM EDT SUN JUL 27 2014

Note: "FAIR" indicates few or no clouds below 12,000 feet
with no significant weather and/or obstructions to visibility.
 TC=TEMPERATURE CELSIUS

 * =Non NWS site. Station does not report precipitation (e.g. rain,
    snow, etc.), thunder, or fog.

DCZ001-MDZ009-015-VAZ040>042-051-053>054-272100-
WASHINGTON METRO
  /KDAA//-FT BELVOIR

CITY           SKY/WX    TMP DP  RH WIND       PRES   REMARKS
WASHINGTON NAT PTSUNNY   85  70  60 S12       29.76F
DULLES         PTSUNNY   82  70  66 S12       29.76F
ANDREWS AFB    PTSUNNY   82  71  67 SW10G18   29.77F
QUANTICO       CLOUDY    82  70  66 SW9       29.77F
COLLEGE PARK*  PTSUNNY   86  70  58 S8        29.76F HX  90
LEESBURG*      PTSUNNY   86  73  66 SW6       29.76F HX  93
MANASSAS*      PTSUNNY   82  73  74 S7        29.76F
GAITHERSBURG*  PTSUNNY   86  72  62 S7        29.79F HX  92

$$

MDZ006>007-011-014-272100-
BALTIMORE METRO

CITY           SKY/WX    TMP DP  RH WIND       PRES   REMARKS
BWI AIRPORT    CLOUDY    87  70  56 SW9G17    29.74F HX  92
MD SCIENCE CTR   N/A     88  70  55 MISG      29.73F HX  93
MARTIN STATE   PTSUNNY   88  75  66 S8        29.75F HX  97
ANNAPOLIS      CLOUDY    85  70  60 VRB7      29.75F
FORT MEADE*    CLOUDY    84  70  61 SW9       29.78F

$$

MDZ012-015-019>023-272100-
MARYLAND EASTERN SHORE

CITY           SKY/WX    TMP DP  RH WIND       PRES   REMARKS
OCEAN CITY     CLOUDY    83  71  67 W9        29.79F
SALISBURY      NOT AVBL
BAY BRIDGE AP*   N/A     82  68  61 S12       29.76F
CAMBRIDGE*     CLOUDY    81  70  69 SW6G16    29.79F
EASTON*        PTSUNNY   82  72  69 SW10      29.82F

$$

MDZ017>025-272100-
SOUTHERN MARYLAND

CITY           SKY/WX    TMP DP  RH WIND       PRES   REMARKS
PATUXENT RIVER CLOUDY    82  71  69 SW9G20    29.78F
ST INIGOES     PTSUNNY   83  69  62 SW9       29.78F
LEONARDTOWN*   PTSUNNY   81  70  69 SW9       29.81F

$$

MDZ003>005-272100-
NORTH CENTRAL MARYLAND

CITY           SKY/WX    TMP DP  RH WIND       PRES   REMARKS
FREDERICK*     MOSUNNY   88  73  62 SW10      29.77F HX  96
HAGERSTOWN APT MOSUNNY   86  69  56 S12       29.73F HX  90
WESTMINSTER*   PTSUNNY   86  79  79 SW10      29.76F HX  99

$$

MDZ501>502-272100-
WESTERN MARYLAND

CITY           SKY/WX    TMP DP  RH WIND       PRES   REMARKS
OAKLAND*       PTSUNNY   72  68  88 W8        29.87F
CUMBERLAND*    MOSUNNY   86  64  48 S8        29.79F

$$

VAZ025>031-272100-
SHENANDOAH VALLEY

CITY           SKY/WX    TMP DP  RH WIND       PRES   REMARKS
WINCHESTER*    RAIN      79  68  69 SW5       29.77F
STAUNTON*      CLOUDY    80  69  69 S8        29.83F

$$

WVZ021-048>050-054>055-272100-
EASTERN WEST VIRGINIA PANHANDLE

CITY           SKY/WX    TMP DP  RH WIND       PRES   REMARKS
MARTINSBURG    CLOUDY    82  67  60 S9        29.75F
PETERSBURG*    CLOUDY    83  60  45 S6        29.76F

$$

VAZ036>039-050-272100-
CENTRAL FOOTHILLS

CITY           SKY/WX    TMP DP  RH WIND       PRES   REMARKS
CHARLOTTESVILL CLOUDY    80  72  76 S12       29.79F
ORANGE*        CLOUDY    81  70  69 S17G24    29.80F

$$

VAZ055>057-272100-
NORTH AND CENTRAL PIEDMONT

CITY           SKY/WX    TMP DP  RH WIND       PRES   REMARKS
FREDERICKSBRG* CLOUDY    83  72  68 SW10      29.77F
STAFFORD*      CLOUDY    80  71  73 SW7       29.81F

$$

NCZ024-NYZ072-PAZ021-071-VAZ022-071-272100-
OTHER REGIONAL OBSERVATIONS

CITY           SKY/WX    TMP DP  RH WIND       PRES   REMARKS
NEW YORK CITY  MOSUNNY   82  67  60 VRB6      29.74S
PHILADELPHIA   PTSUNNY   91  69  48 S10G20    29.72F HX  96
PITTSBURGH     CLOUDY    79  68  69 SW10      29.75F THUNDER
ROANOKE        CLOUDY    81  65  58 W12G17    29.88F
RICHMOND       PTSUNNY   87  69  54 S17       29.80F HX  91
RALEIGH        PTSUNNY   85  72  65 SW8       29.89F HX  91

$$

ANZ530>537-272100-
MARINE OBSERVATIONS

STATION/POSITION TIME  TEMP    WIND        PRES
                       AIR SEA DIR/SP/G
                 (UTC) (F)     (DEG/KT/KT) (MB)
THOMAS PT LIGHT  2000   80 80  200/ 11/ 12 1008.3F
BALT KEY BRIDGE  2000   84     210/ 10/ 13 1006.7F
COVE POINT       2000   80     230/  8/ 11 1008.6F
LEWISETTA        2000   81 80  230/ 11/ 13 1008.3F
SOLOMONS ISLAND  2000      80                N/A
PINEY POINT      2000          240/  9/ 12   N/A

$$




USA.gov is the U.S. government's official web portal to all federal, state and local government web resources and services.